AO-07 1 07530U 74089B 25349.92667221 -.00000025 00000-0 13427-3 0 9999 2 07530 101.9965 356.2278 0012382 120.6513 298.9417 12.53694255337550 UO-11 1 14781U 84021B 25349.88222263 .00000942 00000-0 10294-3 0 9996 2 14781 97.7811 312.8619 0009219 73.5382 286.6848 14.90153368229820 AO-27 1 22825U 93061C 25349.93556531 .00000119 00000-0 62614-4 0 9992 2 22825 98.7143 52.2104 0007312 278.9955 81.0400 14.30877840680790 FO-29 1 24278U 96046B 25349.87834795 -.00000040 00000-0 -31758-5 0 9997 2 24278 98.5461 218.5926 0349282 211.8203 146.1405 13.53262908448372 GO-32 1 25397U 98043D 25349.93806474 .00000092 00000-0 59974-4 0 9993 2 25397 98.9922 333.2240 0001981 52.2495 307.8863 14.24377985425242 ISS 1 25544U 98067A 25349.89461712 .00006813 00000-0 12896-3 0 9998 2 25544 51.6305 126.8563 0003169 254.4589 105.6050 15.49611341543340 NO-44 1 26931U 01043C 25349.73976317 .00000193 00000-0 10292-3 0 9995 2 26931 67.0515 358.7202 0007424 269.7794 90.2457 14.31856461264182 SO-50 1 27607U 02058C 25349.36902203 .00001772 00000-0 22930-3 0 9991 2 27607 64.5542 337.4723 0072348 296.1198 63.2476 14.82402452237203 CO-55 1 27844U 03031E 25349.96226894 .00000370 00000-0 17937-3 0 9991 2 27844 98.6763 355.8237 0009605 4.2888 355.8371 14.24182015165595 CO-57 1 27848U 03031J 25349.29774373 .00000342 00000-0 16942-3 0 9995 2 27848 98.6792 355.0277 0009873 23.7561 336.4071 14.23489145165212 RS-22 1 27939U 03042A 25349.98776069 .00001179 00000-0 19173-3 0 9996 2 27939 98.3363 164.2738 0012155 125.8066 25.5411 14.72981161188574 CO-58 1 28895U 05043F 25349.90861328 .00001468 00000-0 24229-3 0 9995 2 28895 98.2719 137.0398 0015317 68.9442 291.3400 14.71913245 74783 CO-65 1 32785U 08021C 25349.95851917 .00005052 00000-0 34073-3 0 9996 2 32785 97.8078 323.0925 0007880 297.5844 62.4582 15.07084199957576 CO-66 1 32791U 08021J 25349.92123127 .00013520 00000-0 53845-3 0 9992 2 32791 97.7443 335.1764 0001650 190.0708 170.0496 15.25365799959286 RS-30 1 32953U 08025A 25349.92972235 .00000038 00000-0 20449-3 0 9992 2 32953 82.5016 109.4386 0018909 354.0783 6.0070 12.43172157796923 SRMSAT 1 37841U 11058D 25349.65056470 .00000425 00000-0 86862-4 0 9999 2 37841 19.9717 90.3334 0011830 345.5596 152.0986 14.11512425731852 ZACUBE-1 1 39417U 13066B 25349.86230540 .00002707 00000-0 22379-3 0 9993 2 39417 97.8057 306.4121 0042005 137.0608 223.3906 14.99113298653247 Delfi-N3xt 1 39428U 13066N 25349.75956897 .00004703 00000-0 44264-3 0 9998 2 39428 97.8343 265.6420 0080825 95.5635 265.4809 14.91867196647242 GOMX-1 1 39430U 13066Q 25349.83141459 .00002589 00000-0 40026-3 0 9992 2 39430 97.6592 196.7635 0129530 306.6195 52.3154 14.68603150642990 LO-74 1 39440U 13066AA 25349.82419142 .00002854 00000-0 27855-3 0 9999 2 39440 97.8707 293.4917 0057979 275.4306 84.0300 14.92002896649633 AO-73 1 39444U 13066AE 25349.84429784 .00005995 00000-0 40796-3 0 9996 2 39444 97.8065 313.1607 0040738 105.5645 255.0084 15.06011134652032 DTUSAT-2 1 40030U 14033W 25349.97914874 .00006767 00000-0 40018-3 0 9992 2 40030 98.0752 331.6281 0009553 130.5432 229.6630 15.11788191624972 EO-80 1 40032U 14033Y 25349.92343792 .00005987 00000-0 35372-3 0 9994 2 40032 98.0634 330.9583 0009829 81.1017 279.1324 15.11871571624948 LILACSAT-2 1 40908U 15049K 25349.97502844 .00011966 00000-0 25696-3 0 9996 2 40908 97.4915 15.4571 0007538 184.9914 175.1261 15.44825126567403 IO-86 1 40931U 15052B 25151.18580175 .00001241 00000-0 78118-4 0 9996 2 40931 6.0006 24.0987 0012733 338.8432 21.1169 14.78805930523159 Horyu-4 1 41340U 16012D 25349.90138778 .00038858 00000-0 64324-3 0 9992 2 41340 30.9943 288.2684 0006966 263.9527 96.0329 15.50891046542044 Lapan A3 1 41603U 16040E 25349.96155081 .00003436 00000-0 11498-3 0 9995 2 41603 97.1426 347.4008 0009337 321.1522 38.9048 15.31579440526755 CAS-2T 1 41847U 16066G 25349.81011121 .00001081 00000-0 16241-3 0 9998 2 41847 98.4036 62.5205 0343028 325.8414 32.1122 14.44138016478320 TechnoSat 1 42829U 17042E 25349.92316414 .00003042 00000-0 22695-3 0 9998 2 42829 97.4046 149.9918 0018219 3.6825 356.4532 15.03441211459157 AO-91 1 43017U 17073E 25349.89422384 .00008444 00000-0 40054-3 0 9992 2 43017 97.4954 216.0187 0159192 239.4840 119.0592 15.08934652437719 S-Net D 1 43186U 18014G 25349.72742591 .00004338 00000-0 23988-3 0 9997 2 43186 97.5491 250.7912 0007027 301.9056 58.1492 15.14392579430973 S-Net B 1 43187U 18014H 25349.73553095 .00004641 00000-0 25649-3 0 9991 2 43187 97.5496 250.7797 0007659 295.5083 64.5356 15.14368359430978 S-Net A 1 43188U 18014J 25349.72712123 .00004302 00000-0 23785-3 0 9993 2 43188 97.5506 250.9483 0007526 296.5276 63.5183 15.14398970430972 S-Net C 1 43189U 18014K 25349.73850505 .00004682 00000-0 25869-3 0 9998 2 43189 97.5519 251.0054 0008873 286.2810 73.7445 15.14363213429524 Ten-Koh 1 43677U 18084G 25349.77646069 .00002413 00000-0 18987-3 0 9992 2 43677 98.0744 169.5194 0009250 16.1683 343.9833 15.01838997388628 PO-101 1 43678U 18084H 25349.98869186 .00002918 00000-0 24314-3 0 9994 2 43678 98.1023 173.5817 0007655 37.8949 322.2810 14.99455809388751 QO-100 1 43700U 18090A 25349.91963343 .00000000 00000-0 00000-0 0 9993 2 43700 0.0249 3.6175 0000929 278.9053 159.1571 1.00269692 25839 MinXSS-2 1 43758U 18099A 25349.62430518 .00018334 00000-0 54662-3 0 9991 2 43758 97.4802 57.0280 0009170 201.0021 159.0846 15.34675533385869 AO-95 1 43770U 18099N 25349.88308413 .00008589 00000-0 37926-3 0 9996 2 43770 97.4681 46.1426 0008150 273.3620 86.6684 15.21958003385297 SNUSat 2 1 43782U 18099AA 25349.09725986 .00006757 00000-0 33209-3 0 9995 2 43782 97.4360 40.4635 0010218 213.7448 146.3137 15.18320759385066 SnugLite 1 43784U 18099AC 25349.93515777 .00008622 00000-0 37656-3 0 9998 2 43784 97.4171 41.3455 0002560 186.2520 173.8685 15.22354318385396 ITASat 1 1 43786U 18099AE 25349.60198143 .00005079 00000-0 26655-3 0 9998 2 43786 97.4327 39.8538 0011778 272.6366 87.3518 15.16117797385063 EAGLET 1 1 43790U 18099AJ 25349.88327581 .00003947 00000-0 23889-3 0 9991 2 43790 97.4527 39.3400 0010017 257.2490 102.7621 15.11146990384636 ESEO 1 43792U 18099AL 25349.94286671 .00002137 00000-0 16086-3 0 9995 2 43792 97.4224 29.9961 0011345 236.3236 123.6909 15.03490638384262 JO-97 1 43803U 18099AX 25349.89573010 .00012271 00000-0 46602-3 0 9995 2 43803 97.4427 47.7019 0006133 189.6057 170.5066 15.26948569385590 Suomi 100 1 43804U 18099AY 25349.41443560 .00008694 00000-0 36795-3 0 9996 2 43804 97.4487 45.8542 0010428 201.8906 158.1887 15.23379834385390 ISAT 1 43879U 18111D 25349.72209170 .00027228 00000-0 63818-3 0 9994 2 43879 97.5908 269.5396 0003625 233.2007 126.8908 15.42054640382709 UWE-4 1 43880U 18111E 25349.82866565 .00019605 00000-0 58663-3 0 9996 2 43880 97.5858 266.4385 0007191 262.7672 97.2753 15.34564319382558 Sparrow 1 43881U 18111F 25349.76706327 .00031580 00000-0 68453-3 0 9993 2 43881 97.6092 273.3595 0002361 314.7352 45.3703 15.44362465382836 Prox-1 1 44339U 19036A 25349.86559761 .00009945 00000-0 11000-2 0 9993 2 44339 23.9956 254.0674 0006556 77.6390 282.4842 14.85267538346137 Taurus 1 1 44530U 19059C 25349.97222931 .00006592 00000-0 11271-2 0 9994 2 44530 98.6219 139.0028 0009079 164.5898 195.5584 14.69206587331712 Duchifat 3 1 44854U 19089C 25342.89580904 .10801921 36355-5 10723-2 0 9995 2 44854 36.9163 249.0625 0006835 253.5286 106.4749 16.36980482331539 TO-108 1 44881U 19093C 25349.99974288 .00000352 00000-0 46218-4 0 9991 2 44881 97.7759 61.5583 0013128 335.3670 24.6917 14.86109680324204 FloripaSat 1 1 44885U 19093G 25349.97637959 .00004329 00000-0 34084-3 0 9999 2 44885 97.8041 78.1843 0010158 326.2985 33.7592 15.01311710325134 RS-44 1 44909U 19096E 25349.82861214 .00000010 00000-0 -84922-6 0 9999 2 44909 82.5214 101.5563 0217152 212.8492 145.8956 12.79746173278896 SALSAT 1 46495U 20068K 25349.94064692 .00006472 00000-0 25165-3 0 9998 2 46495 97.8781 337.3859 0009149 216.2619 143.7999 15.26381318287375 CSS (TIANHE-1) 1 48274U 21035A 25349.72502975 .00014504 00000-0 18267-3 0 9997 2 48274 41.4685 358.5824 0007901 56.1338 304.0252 15.59304358264497 TUBIN 1 48900U 21059X 25349.78845228 .07315651 27141-5 56139-3 0 9990 2 48900 97.6553 178.8839 0007270 265.1302 94.9166 16.40417761249824 CUTE 1 49263U 21088D 25349.79228509 .00024498 00000-0 31824-3 0 9996 2 49263 97.4352 72.7780 0004442 256.6145 103.4616 15.58797845233772 TeikyoSat 4 1 49396U 21102B 25349.91843419 .00002154 00000-0 14125-3 0 9997 2 49396 97.3897 21.3987 0011700 197.0097 163.0742 15.08656749225089 Z-Sat 1 49399U 21102E 25350.01046503 .00003696 00000-0 19254-3 0 9992 2 49399 97.3587 25.8556 0017658 160.6282 199.5626 15.16468491225662 KOSEN 1 1 49402U 21102H 25349.06748558 .00006338 00000-0 26636-3 0 9997 2 49402 97.3477 29.9092 0015808 133.5277 226.7277 15.23655443225953 HO-113 1 50466U 21131B 25349.98280097 .00000484 00000-0 16409-3 0 9994 2 50466 98.5050 78.3875 0003095 294.2430 65.8435 14.41117034208725 SNUGLITE 2 1 52899U 22065F 25349.94649930 .00001278 00000-0 25382-3 0 9996 2 52899 98.1930 130.4612 0006595 233.8805 126.1787 14.63845271184181 UmKA 1 (RS40S) 1 57172U 23091G 25349.90587152 .00005548 00000-0 27384-3 0 9996 2 57172 97.5345 44.3569 0014484 43.1849 317.0518 15.18214507136175 CubeBel-2 (EU11S) 1 57175U 23091K 25349.93821812 .00009710 00000-0 40155-3 0 9992 2 57175 97.5343 46.9049 0011864 46.1279 314.0937 15.24116816136348 RS-38S 1 57189U 23091Z 25349.97732831 .00011961 00000-0 42079-3 0 9991 2 57189 97.5368 51.4226 0008475 12.2968 347.8477 15.29465301136626 SONATE-2 1 59112U 24043Q 25349.89098955 .00021779 00000-0 45865-3 0 9994 2 59112 97.5321 126.2596 0009129 150.6689 209.5073 15.45248813 99469 MO-122 1 60209U 24125G 25349.50633947 .00024493 00000-0 49377-3 0 9996 2 60209 97.2524 199.8801 0014343 167.4470 192.7140 15.46431890 81035 GRBBeta 1 60237U 24128C 25349.80812236 .00003755 00000-0 27081-3 0 9999 2 60237 61.9889 138.8210 0056117 97.1677 263.5800 15.04788623 78655 Curium One 1 60242U 24128H 25349.91028585 .00007171 00000-0 44915-3 0 9994 2 60242 61.9781 133.2650 0055937 94.0390 266.7100 15.08955553 78768 ROBUSTA-3A 1 60243U 24128J 25349.91505380 .00005814 00000-0 37384-3 0 9992 2 60243 61.9857 134.7954 0056126 91.5156 269.2368 15.08266999 78740 CatSat 1 60246U 24125J 25349.33777353 .00026611 00000-0 63824-3 0 9995 2 60246 97.2314 196.6943 0034179 134.9888 225.4138 15.40741659 78922 HYPERVIEW-1G (RS66S) 1 61772U 24199AP 25349.91025847 .00032853 00000-0 62558-3 0 9997 2 61772 97.3213 219.3851 0008037 222.2673 137.7959 15.48109322106105 AO-123 1 61781U 24199AY 25349.93848551 .00008538 00000-0 27797-3 0 9993 2 61781 97.3254 215.3533 0012887 242.6910 117.3021 15.32021424105833 ZIMSAT 2 1 61783U 24199BA 25349.90976450 .00183232 00000-0 12264-2 0 9999 2 61783 97.3086 223.0333 0004235 172.7132 187.4195 15.74739361109509 HADES-R (SO-124) 1 62690U 25009CK 25349.78262861 .00119717 00000-0 14669-2 0 9996 2 62690 97.3870 72.5224 0001089 260.3917 99.7217 15.59953125 51250 HYDRA-T 1 62692U 25009CM 25349.75731687 .00142198 00000-0 16074-2 0 9993 2 62692 97.3865 72.7074 0001546 274.3802 85.7279 15.61986301 51266 JINJUSat 1B 1 63210U 25052A 25349.14498272 .00010215 00000-0 39056-3 0 9991 2 63210 97.4206 241.2851 0005270 41.8756 318.2886 15.26779390 41954 NUSHSAT 1 1 63211U 25052B 25349.20414196 .00013257 00000-0 48974-3 0 9990 2 63211 97.4187 241.4689 0005364 44.4071 315.7598 15.27849269 41975 TEVEL2-4 1 63213U 25052D 25348.94399458 .00011069 00000-0 41809-3 0 9994 2 63213 97.4107 240.7572 0004939 58.7302 301.4420 15.27162247 41929 TEVEL2-5 1 63214U 25052E 25349.14614184 .00011264 00000-0 42626-3 0 9999 2 63214 97.4100 240.9453 0004953 58.7678 301.4046 15.27093140 41957 TEVEL2-6 1 63215U 25052F 25349.67774483 .00011597 00000-0 43923-3 0 9997 2 63215 97.4108 241.4616 0005091 57.2977 302.8753 15.27058739 42038 TEVEL2-1 1 63217U 25052H 25349.65551052 .00012413 00000-0 47458-3 0 9997 2 63217 97.4085 241.2482 0005227 65.3703 294.8080 15.26727928 42025 TEVEL2-3 1 63218U 25052J 25349.13034184 .00011534 00000-0 44107-3 0 9994 2 63218 97.4083 240.7324 0005294 68.0022 292.1779 15.26737008 41947 TEVEL2-2 1 63219U 25052K 25349.13194210 .00010908 00000-0 41760-3 0 9998 2 63219 97.4084 240.7285 0005290 68.1420 292.0381 15.26714963 41947 TEVEL2-9 1 63237U 25052AD 25349.95021886 .00011893 00000-0 47525-3 0 9995 2 63237 97.4149 241.2426 0009320 73.1433 287.0827 15.25234460 42038 TEVEL2-7 1 63238U 25052AE 25349.63638816 .00011120 00000-0 44675-3 0 9994 2 63238 97.4147 240.9055 0009394 74.1686 286.0587 15.25072639 41986 TEVEL2-8 1 63239U 25052AF 25349.64207462 .00011290 00000-0 45386-3 0 9993 2 63239 97.4149 240.8956 0009376 74.3480 285.8791 15.25046946 41988 HYDRA-W 1 63490U 25052BL 25349.94735581 .00056434 00000-0 13222-2 0 9995 2 63490 97.4064 243.7747 0011477 63.6642 296.5782 15.41841265 42210 HADES-ICM (SO-125) 1 63492U 25052BN 25348.97147613 .00038798 00000-0 97714-3 0 9994 2 63492 97.4083 242.5092 0011745 69.2947 290.9556 15.39733774 42041 Dragonfly 1 65729U 98067XH 25349.66187528 .00139257 00000-0 98919-3 0 9991 2 65729 51.6241 120.7881 0007015 296.9718 63.0564 15.72920321 13620 RSP-03 1 65732U 98067XL 25349.41416620 .00103156 00000-0 85709-3 0 9998 2 65732 51.6255 122.8946 0005631 270.0098 90.0254 15.69333488 13589 GHS-01 1 65733U 98067XM 25349.73472232 .00180872 00000-0 11102-2 0 9990 2 65733 51.6274 119.7831 0007600 301.7085 58.3173 15.76152522 13656 BOTAN 1 65942U 98067XP 25349.65896850 .00082884 00000-0 87407-3 0 9995 2 65942 51.6278 124.5376 0002930 262.4016 97.6646 15.63514528 10324 BEE-1000 1 66650U 25274A 25349.83813619 .00001133 00000-0 11818-3 0 9995 2 66650 97.7392 276.9688 0010484 239.8686 120.1495 14.91674724 2860 SPIRONE 1 66657U 25274H 25349.76129717 .00002537 00000-0 25257-3 0 9994 2 66657 97.7391 276.9146 0010576 264.4520 95.5493 14.92474915 2851 K-HERO 1 66660U 25274L 25349.75479615 .00002793 00000-0 27393-3 0 9999 2 66660 97.7394 276.9248 0012466 269.5758 90.4033 14.92979054 2858 SNUGLITE-III DURI 1 66661U 25274M 25349.88694819 .00002502 00000-0 24514-3 0 9999 2 66661 97.7395 277.0583 0013127 270.4032 89.5684 14.93115525 2874 SilverSat 1 66909U 98067XV 25349.62370561 .00048941 00000-0 79995-3 0 9991 2 66909 51.6296 128.0480 0004117 244.8670 115.1892 15.52037636 2061 CEVROSAT1 1 98526U 25248E 25313.13142326 .00000000 00000-0 19360-3 0 02 2 98526 45.4084 218.4764 0001315 254.8982 242.1062 15.17981583 02